"2016-04-26 00:00:00",1579611,3.226,222.7,6.112,0.188,18.62,106.4505,15.79,16.74,28.09,0,110.8,13.01,16.59,184.7
"2016-04-26 00:00:30",1579612,2.856,213.4,3.252,0.157,18.58,106.4505,15.79,16.74,28.29,0,110.8,13.01,16.59,175.4
"2016-04-26 00:01:00",1579613,2.323,223.3,4.914,0.312,18.72,106.4505,15.79,16.76,27.63,0,110.8,13.01,16.59,185.3
"2016-04-26 00:01:30",1579614,1.902,238.7,7.261,0.389,18.57,106.4505,15.79,16.76,27.87,0,110.8,13.01,16.59,200.7
"2016-04-26 00:02:00",1579615,2.31,249.1,11.02,0.793,18.59,106.4505,15.79,16.78,27.9,0,110.8,13,16.59,211.1
"2016-04-26 00:02:30",1579616,2.469,278.3,12.63,0.335,18.5,106.4505,15.79,16.77,28.09,0,110.8,13.01,16.59,240.3
"2016-04-26 00:03:00",1579617,2.749,286.3,6.115,0.196,18.26,106.4505,15.79,16.78,28.26,0,110.8,13.01,16.59,248.3
"2016-04-26 00:03:30",1579618,2.291,279.9,11.37,0.389,18.34,106.4505,15.79,16.79,28.45,0,110.8,13.01,16.59,241.9
"2016-04-26 00:04:00",1579619,2.16,284.6,13.8,0.396,18.38,106.4505,15.79,16.78,28.37,0,110.8,13.01,16.59,246.6
"2016-04-26 00:04:30",1579620,2.479,289.5,6.281,0.314,18.43,106.4505,15.79,16.79,28.12,0,110.8,13.01,16.59,251.5
"2016-04-26 00:05:00",1579621,2.716,298.6,7.528,0.202,18.4,106.4505,15.79,16.79,28.08,0,110.8,13.01,16.59,260.6
"2016-04-26 00:05:30",1579622,2.111,313.3,4.337,0.343,18.29,106.4505,15.79,16.8,28.04,0,110.8,13.01,16.59,275.3
"2016-04-26 00:06:00",1579623,2.05,310,6.137,0.272,18.21,106.4505,15.79,16.78,28.04,0,110.8,13.01,16.59,272.0
"2016-04-26 00:06:30",1579624,1.852,274.9,17.87,0.389,17.98,106.4505,15.79,16.77,28.45,0,110.8,13.02,16.59,236.9
"2016-04-26 00:07:00",1579625,1.966,261.6,8.4,0.413,17.85,106.4505,15.79,16.78,28.74,0,110.8,13.02,16.59,223.6
"2016-04-26 00:07:30",1579626,2.492,276.3,12.94,0.234,17.82,106.4505,15.79,16.78,28.88,0,110.8,13.02,16.59,238.3
"2016-04-26 00:08:00",1579627,2.322,306.8,3.884,0.259,17.79,106.4505,15.79,16.79,29.12,0,110.8,13.02,16.59,268.8
"2016-04-26 00:08:30",1579628,1.759,296.2,9.46,0.231,17.9,106.4505,15.79,16.78,29.12,0,110.8,13.02,16.59,258.2
"2016-04-26 00:09:00",1579629,2.673,270.1,9.43,0.416,17.93,106.4505,15.79,16.79,29.19,0,110.8,13.02,16.59,232.1
"2016-04-26 00:09:30",1579630,2.6,276.8,5.773,0.262,17.9,106.4505,15.79,16.8,29.53,0,110.8,13.02,16.59,238.8
"2016-04-26 00:10:00",1579631,1.966,258.2,14.34,0.451,18.29,106.4505,15.79,16.82,29.17,0,110.8,13.02,16.59,220.2
"2016-04-26 00:10:30",1579632,2.432,265.3,14.32,0.373,18.11,106.4505,15.79,16.8,29.05,0,110.8,13.02,16.59,227.3
"2016-04-26 00:11:00",1579633,1.989,265.5,9.86,0.245,18.33,106.4505,15.79,16.82,29.05,0,110.8,13.02,16.59,227.5
"2016-04-26 00:11:30",1579634,2.167,273.9,4.221,0.224,18.38,106.4505,15.79,16.81,28.8,0,110.8,13.02,16.59,235.9
"2016-04-26 00:12:00",1579635,2.82,254.5,6.584,0.439,18.47,106.4505,15.79,16.82,28.42,0,110.8,13.02,16.59,216.5
"2016-04-26 00:12:30",1579636,2.283,245.1,20.58,0.322,18.35,106.4505,15.79,16.82,28.39,0,110.8,13.02,16.59,207.1
"2016-04-26 00:13:00",1579637,2.516,287.1,4.927,0.359,18.19,106.4505,15.79,16.82,28.9,0,110.8,13.02,16.59,249.1
"2016-04-26 00:13:30",1579638,1.837,318.3,8.3,0.253,18.22,106.4505,15.79,16.81,28.87,0,110.8,13.02,16.59,280.3
"2016-04-26 00:14:00",1579639,2.341,308.1,12.77,0.474,18.34,106.4505,15.79,16.82,28.76,0,110.8,13.02,16.59,270.1
"2016-04-26 00:14:30",1579640,3.047,299.4,14.51,0.238,18.12,106.4505,15.79,16.81,28.57,0,110.8,13.02,16.59,261.4
"2016-04-26 00:15:00",1579641,3.147,312.8,2.515,0.192,17.76,106.4505,15.79,16.81,29.46,0,110.8,13.02,16.59,274.8
"2016-04-26 00:15:30",1579642,2.705,305,7.129,0.154,17.95,106.4505,15.79,16.8,29.46,0,110.8,13.01,16.59,267.0
"2016-04-26 00:16:00",1579643,2.08,302.2,10.71,0.326,17.97,106.4494,15.78,16.8,29.46,0,110.8,13.02,16.59,264.2
"2016-04-26 00:16:30",1579644,2.003,278.7,18.75,0.547,18.43,106.4466,15.78,16.81,28.98,0,110.8,13.02,16.58,240.7
"2016-04-26 00:17:00",1579645,3.188,250.4,10.72,0.388,18.55,106.4404,15.76,16.79,27.76,0,110.8,13.01,16.57,212.4
"2016-04-26 00:17:30",1579646,2.907,246.2,13.52,0.358,18.13,106.4215,15.71,16.77,28.56,0,110.8,13.01,16.52,208.2
"2016-04-26 00:18:00",1579647,1.667,213.3,14.69,0.502,18.95,106.4167,15.7,16.76,27.37,0,110.8,13.01,16.51,175.3
"2016-04-26 00:18:30",1579648,1.67,229.7,7.291,0.599,19.07,106.4212,15.71,16.74,26.03,0,110.8,13.01,16.52,191.7
"2016-04-26 00:19:00",1579649,1.558,235.8,17.8,0.447,18.68,106.4331,15.74,16.74,26.88,0,110.8,13.01,16.55,197.8
"2016-04-26 00:19:30",1579650,0.441,313.3,16.04,0.441,18.09,106.4229,15.72,16.74,27.97,0,110.8,13.01,16.52,275.3
"2016-04-26 00:20:00",1579651,0.027,323.5,23.53,0.3,18.15,106.4173,15.7,16.73,28.63,0,110.8,13.01,16.51,285.5
"2016-04-26 00:20:30",1579652,0.991,290.3,13.82,0.39,18.43,106.4167,15.7,16.74,28.25,0,110.8,13.01,16.51,252.3
"2016-04-26 00:21:00",1579653,2.036,293.1,7.06,0.347,18.5,106.4167,15.7,16.73,27.92,0,110.8,13.01,16.51,255.1
"2016-04-26 00:21:30",1579654,1.463,279.4,7.954,0.255,18.61,106.4167,15.7,16.72,27.65,0,110.8,13.01,16.51,241.4
"2016-04-26 00:22:00",1579655,2.126,304.6,11.84,0.489,18.59,106.4167,15.7,16.72,27.49,0,110.8,13.01,16.51,266.6
"2016-04-26 00:22:30",1579656,1.595,309.5,4.065,0.205,18.73,106.4167,15.7,16.7,27.25,0,110.8,13.01,16.51,271.5
"2016-04-26 00:23:00",1579657,0.798,306.9,6.805,0.46,18.7,106.4167,15.7,16.71,27.37,0,110.8,13.01,16.51,268.9
"2016-04-26 00:23:30",1579658,0.802,309,8.06,0.152,18.48,106.4162,15.7,16.7,27.39,0,110.8,13.02,16.51,271.0
"2016-04-26 00:24:00",1579659,1.906,298.4,10.45,0.635,18.61,106.4137,15.69,16.7,27.54,0,110.8,13.02,16.50,260.4
"2016-04-26 00:24:30",1579660,1.094,301.2,16.01,0.598,18.81,106.4083,15.68,16.7,27.32,0,110.8,13.02,16.49,263.2
"2016-04-26 00:25:00",1579661,0.016,53.8,86.3,0.207,18.7,106.4075,15.68,16.68,27.4,0,110.8,13.02,16.48,15.8
"2016-04-26 00:25:30",1579662,1.266,204.8,19.85,0.916,18.67,106.4041,15.67,16.68,27.43,0,110.8,13.02,16.47,166.8
"2016-04-26 00:26:00",1579663,1.336,193.6,17.01,0.263,18.65,106.3909,15.63,16.69,27.48,0,110.8,13.02,16.44,155.6
"2016-04-26 00:26:30",1579664,1.008,169.7,7.657,0.384,18.71,106.383,15.61,16.68,27.56,0,110.8,13.02,16.42,131.7
"2016-04-26 00:27:00",1579665,0.338,204.9,40.32,0.434,18.67,106.383,15.61,16.66,27.6,0,110.8,13.02,16.42,166.9
"2016-04-26 00:27:30",1579666,0.605,217.6,19.15,0.393,18.71,106.383,15.61,16.66,27.67,0,110.8,13.02,16.42,179.6
"2016-04-26 00:28:00",1579667,2.39,214.6,22.39,1.401,18.66,106.383,15.61,16.66,27.7,0,110.8,13.02,16.42,176.6
"2016-04-26 00:28:30",1579668,3.32,219.5,10.97,0.79,18.84,106.383,15.61,16.66,27.25,0,110.8,13.02,16.42,181.5
"2016-04-26 00:29:00",1579669,3.458,208,21.44,0.766,18.75,106.383,15.61,16.65,27.44,0,110.8,13.02,16.42,170.0
"2016-04-26 00:29:30",1579670,3.536,207,9.65,0.8,18.69,106.3827,15.61,16.65,27.62,0,110.8,13.02,16.42,169.0
"2016-04-26 00:30:00",1579671,2.236,248.8,24.31,0.463,18.59,106.3785,15.6,16.64,27.81,0,110.8,13.02,16.41,210.8
"2016-04-26 00:30:30",1579672,1.169,279.6,20.46,0.467,18.47,106.376,15.6,16.63,28.34,0,110.8,13.02,16.40,241.6
"2016-04-26 00:31:00",1579673,1.571,277.7,12.13,0.487,18.61,106.3709,15.58,16.63,28.45,0,110.8,13.02,16.39,239.7
"2016-04-26 00:31:30",1579674,1.927,311.3,19.88,0.361,18.46,106.3575,15.55,16.62,28.33,0,110.7,13.02,16.35,273.3
"2016-04-26 00:32:00",1579675,1.112,339.1,8.92,0.404,18.57,106.3528,15.54,16.61,28.53,0,110.7,13.02,16.34,301.1
"2016-04-26 00:32:30",1579676,0.515,299.3,26.73,0.444,18.68,106.3522,15.54,16.61,28.06,0,110.7,13.02,16.34,261.3
"2016-04-26 00:33:00",1579677,0.597,172.9,46.86,0.422,18.64,106.3552,15.54,16.6,27.96,0,110.7,13.02,16.35,134.9
"2016-04-26 00:33:30",1579678,1.438,224.7,10.07,0.26,18.52,106.3573,15.55,16.59,27.93,0,110.7,13.02,16.35,186.7
"2016-04-26 00:34:00",1579679,1.785,248.2,10.25,0.232,18.62,106.3582,15.55,16.57,28.25,0,110.7,13.02,16.36,210.2
"2016-04-26 00:34:30",1579680,1.515,222.9,12.06,0.392,18.54,106.3558,15.54,16.59,28.21,0,110.7,13.02,16.35,184.9
"2016-04-26 00:35:00",1579681,1.666,233.8,8.34,0.344,18.51,106.3477,15.52,16.56,28.36,0,110.7,13.02,16.33,195.8
"2016-04-26 00:35:30",1579682,1.435,215.7,16.42,0.208,18.51,106.332,15.48,16.56,28.52,0,110.7,13.02,16.29,177.7
"2016-04-26 00:36:00",1579683,1.677,199.4,20.88,0.304,18.39,106.3352,15.49,16.55,28.58,0,110.7,13.02,16.30,161.4
"2016-04-26 00:36:30",1579684,1.78,278.7,29.36,0.418,18.4,106.3343,15.49,16.54,28.88,0,110.7,13.02,16.30,240.7
"2016-04-26 00:37:00",1579685,1.111,327.3,44.86,0.71,18.42,106.3391,15.5,16.53,28.92,0,110.7,13.02,16.31,289.3
"2016-04-26 00:37:30",1579686,0.899,120.4,61.68,0.663,18.74,106.3415,15.51,16.53,28.74,0,110.7,13.02,16.31,82.4
"2016-04-26 00:38:00",1579687,1.361,213.1,16.29,0.617,18.7,106.3439,15.51,16.51,28.48,0,110.7,13.02,16.32,175.1
"2016-04-26 00:38:30",1579688,2.157,194.7,12.11,0.643,18.62,106.339,15.5,16.5,28.49,0,110.7,13.02,16.31,156.7
"2016-04-26 00:39:00",1579689,2.534,201.1,13.72,0.434,19,106.3332,15.49,16.49,28.12,0,110.7,13.02,16.29,163.1
"2016-04-26 00:39:30",1579690,1.99,174.8,20.87,0.38,19.01,106.3195,15.45,16.5,27.51,0,110.7,13.02,16.26,136.8
"2016-04-26 00:40:00",1579691,2.339,191.5,7.424,0.219,18.9,106.317,15.44,16.47,27.69,0,110.7,13.02,16.25,153.5
"2016-04-26 00:40:30",1579692,2.056,210.8,15.2,0.32,18.63,106.3176,15.45,16.47,28.16,0,110.7,13.03,16.25,172.8
"2016-04-26 00:41:00",1579693,2.353,222.3,8.99,0.603,18.67,106.3173,15.45,16.46,28.58,0,110.7,13.03,16.25,184.3
"2016-04-26 00:41:30",1579694,1.702,222.5,12.42,0.75,18.67,106.317,15.44,16.45,28.49,0,110.7,13.03,16.25,184.5
"2016-04-26 00:42:00",1579695,2.817,269.6,5.608,0.685,18.71,106.3094,15.43,16.43,28.82,0,110.7,13.04,16.23,231.6
"2016-04-26 00:42:30",1579696,2.462,274.2,7.352,0.224,18.56,106.2959,15.39,16.43,29.03,0,110.7,13.04,16.20,236.2
"2016-04-26 00:43:00",1579697,2.477,292,8.97,0.55,18.45,106.2838,15.36,16.4,29.13,0,110.7,13.04,16.17,254.0
"2016-04-26 00:43:30",1579698,1.573,306.3,16.48,0.42,18.48,106.2804,15.35,16.36,29.22,0,110.7,13.04,16.16,268.3
"2016-04-26 00:44:00",1579699,2.081,264.8,12.2,0.904,18.65,106.2545,15.28,16.33,29.3,0,110.7,13.03,16.09,226.8
"2016-04-26 00:44:30",1579700,3.449,257.8,10.82,0.748,19.04,106.25,15.27,16.32,28.52,0,110.7,13.03,16.08,219.8
"2016-04-26 00:45:00",1579701,4.009,239.2,9.37,0.752,19.48,106.25,15.27,16.3,26.62,0,110.7,13.03,16.08,201.2
"2016-04-26 00:45:30",1579702,2.586,252.3,25.86,0.924,19.48,106.2503,15.27,16.29,24.91,0,110.7,13.04,16.08,214.3
"2016-04-26 00:46:00",1579703,0.994,271.3,17.59,0.542,18.52,106.25,15.27,16.29,28.33,0,110.7,13.03,16.08,233.3
"2016-04-26 00:46:30",1579704,1.333,316.7,22.98,0.309,18.37,106.25,15.27,16.28,28.89,0,110.7,13.04,16.08,278.7
"2016-04-26 00:47:00",1579705,1.721,304.7,20.43,0.505,18.52,106.25,15.27,16.28,28.88,0,110.7,13.04,16.08,266.7
"2016-04-26 00:47:30",1579706,2.4,312.5,4.194,0.371,18.36,106.25,15.27,16.26,28.93,0,110.7,13.04,16.08,274.5
"2016-04-26 00:48:00",1579707,2.249,301.6,16.37,0.266,18.48,106.25,15.27,16.25,28.81,0,110.7,13.04,16.08,263.6
"2016-04-26 00:48:30",1579708,2.134,305.2,9.2,0.271,18.34,106.2494,15.27,16.24,28.81,0,110.7,13.04,16.08,267.2
"2016-04-26 00:49:00",1579709,3.279,336.3,6.855,0.536,18.55,106.2458,15.26,16.24,28.79,0,110.7,13.04,16.07,298.3
"2016-04-26 00:49:30",1579710,2.517,331.9,10.41,0.499,18.48,106.2416,15.25,16.26,28.99,0,110.7,13.04,16.06,293.9
"2016-04-26 00:50:00",1579711,2.192,330.5,9,0.258,18.48,106.2379,15.24,16.25,29,0,110.7,13.04,16.05,292.5
"2016-04-26 00:50:30",1579712,1.8,306.9,24.99,0.549,18.55,106.2294,15.22,16.24,28.95,0,110.7,13.03,16.03,268.9
"2016-04-26 00:51:00",1579713,1.37,279.3,6.955,0.297,18.62,106.2173,15.19,16.24,29.04,0,110.7,13.03,15.99,241.3
"2016-04-26 00:51:30",1579714,1.413,278,7.286,0.254,18.6,106.2162,15.19,16.24,29.06,0,110.7,13.03,15.99,240.0
"2016-04-26 00:52:00",1579715,1.491,301.6,13.37,0.386,18.54,106.2162,15.19,16.23,28.86,0,110.7,13.03,15.99,263.6
"2016-04-26 00:52:30",1579716,2.032,324.3,5.068,0.412,18.63,106.2162,15.19,16.22,28.71,0,110.7,13.03,15.99,286.3
"2016-04-26 00:53:00",1579717,2.188,331.3,13.37,0.343,18.72,106.2162,15.19,16.22,28.59,0,110.7,13.03,15.99,293.3
"2016-04-26 00:53:30",1579718,2.688,348.3,8.38,0.687,18.56,106.2162,15.19,16.22,28.53,0,110.7,13.03,15.99,310.3
"2016-04-26 00:54:00",1579719,0.956,6.4,12.71,0.675,18.46,106.2174,15.19,16.21,28.54,0,110.7,13.03,15.99,328.4
"2016-04-26 00:54:30",1579720,2.168,355.7,10.37,0.884,18.56,106.2141,15.18,16.21,28.47,0,110.7,13.03,15.99,317.7
"2016-04-26 00:55:00",1579721,1.298,354.7,12.52,0.794,18.5,106.2113,15.17,16.19,28.42,0,110.6,13.03,15.98,316.7
"2016-04-26 00:55:30",1579722,1.417,351,6.131,0.328,18.51,106.207,15.16,16.2,28.39,0,110.7,13.03,15.97,313.0
"2016-04-26 00:56:00",1579723,0.943,348.1,8.88,0.244,18.48,106.1941,15.13,16.18,28.36,0,110.7,13.03,15.93,310.1
"2016-04-26 00:56:30",1579724,1.023,322.7,10.9,0.324,18.78,106.1911,15.12,16.19,28.08,0,110.6,13.03,15.93,284.7
"2016-04-26 00:57:00",1579725,1.688,342,6.706,0.315,18.77,106.1914,15.12,16.17,27.77,0,110.6,13.04,15.93,304.0
"2016-04-26 00:57:30",1579726,0.864,353.4,18.41,0.533,18.65,106.192,15.12,16.17,27.83,0,110.6,13.04,15.93,315.4
"2016-04-26 00:58:00",1579727,1.233,35.48,11.44,0.332,18.82,106.1935,15.13,16.17,27.84,0,110.6,13.04,15.93,357.5
"2016-04-26 00:58:30",1579728,1.593,46.19,5.724,0.301,18.63,106.1962,15.14,16.17,27.73,0,110.6,13.04,15.94,8.2
"2016-04-26 00:59:00",1579729,1.012,29.14,9.96,0.37,18.66,106.2007,15.15,16.16,27.86,0,110.6,13.04,15.95,351.1
"2016-04-26 00:59:30",1579730,1.952,27.32,7.636,0.469,18.58,106.1988,15.14,16.15,27.85,0,110.6,13.04,15.95,349.3
"2016-04-26 01:00:00",1579731,0.508,11.97,15.01,0.344,18.59,106.1987,15.14,16.15,28.11,0,110.6,13.04,15.95,334.0
"2016-04-26 01:00:30",1579732,0.833,9.42,14.94,0.393,18.55,106.1983,15.14,16.13,28.14,0,110.6,13.04,15.95,331.4
"2016-04-26 01:01:00",1579733,1.475,357.2,11.23,0.589,18.59,106.1954,15.13,16.13,28.17,0,110.6,13.04,15.94,319.2
"2016-04-26 01:01:30",1579734,0.816,1.536,13.24,0.501,18.64,106.187,15.11,16.13,28.06,0,110.6,13.04,15.92,323.5
"2016-04-26 01:02:00",1579735,1.171,357.7,13.18,0.651,18.72,106.1824,15.1,16.12,27.92,0,110.6,13.04,15.90,319.7
"2016-04-26 01:02:30",1579736,1.264,0.09,11.98,0.882,18.7,106.1818,15.1,16.11,27.84,0,110.6,13.05,15.90,322.1
"2016-04-26 01:03:00",1579737,2.671,326.4,10.11,0.508,19.23,106.1827,15.1,16.11,27.25,0,110.6,13.04,15.91,288.4
"2016-04-26 01:03:30",1579738,3.12,324.7,11.81,0.632,18.85,106.1845,15.11,16.1,26.93,0,110.6,13.05,15.91,286.7
"2016-04-26 01:04:00",1579739,1.636,348.3,22.51,0.926,18.85,106.1845,15.11,16.11,27.41,0,110.6,13.04,15.91,310.3
"2016-04-26 01:04:30",1579740,1.886,311.6,12.71,0.262,19.27,106.1865,15.11,16.11,26.55,0,110.6,13.04,15.92,273.6
"2016-04-26 01:05:00",1579741,1.34,313.8,11.11,0.446,19.16,106.1921,15.12,16.1,26.18,0,110.6,13.05,15.93,275.8
"2016-04-26 01:05:30",1579742,0.898,351.5,12.52,0.237,19.17,106.1893,15.12,16.11,26.17,0,110.6,13.04,15.92,313.5
"2016-04-26 01:06:00",1579743,0.756,73.08,20.87,0.24,19,106.1868,15.11,16.11,26.61,0,110.6,13.05,15.92,35.1
"2016-04-26 01:06:30",1579744,0.525,108.7,12.16,0.247,19.04,106.1848,15.11,16.12,26.83,0,110.6,13.05,15.91,70.7
"2016-04-26 01:07:00",1579745,0.958,97.2,12.08,0.246,19.17,106.1862,15.11,16.12,26.57,0,110.6,13.05,15.91,59.2
"2016-04-26 01:07:30",1579746,0.214,103,27.12,0.382,19.15,106.1848,15.11,16.13,26.44,0,110.6,13.05,15.91,65.0
"2016-04-26 01:08:00",1579747,0.005,100.5,21.72,0.144,19.37,106.1899,15.12,16.12,26.31,0,110.6,13.05,15.92,62.5
"2016-04-26 01:08:30",1579748,0.221,134.1,29.1,0.221,19.24,106.2096,15.17,16.13,26.13,0,110.6,13.05,15.97,96.1
"2016-04-26 01:09:00",1579749,0.243,192.4,11.86,0.171,19.19,106.2183,15.19,16.13,26.31,0,110.6,13.04,16.00,154.4
"2016-04-26 01:09:30",1579750,-0.055,181.2,21.27,0.251,19.23,106.2237,15.21,16.15,26.26,0,110.6,13.04,16.01,143.2
"2016-04-26 01:10:00",1579751,0.237,244.1,27.78,0.188,19.06,106.2487,15.27,16.15,26.53,0,110.6,13.04,16.08,206.1
"2016-04-26 01:10:30",1579752,0.101,260.9,12.96,0.154,18.84,106.2521,15.28,16.19,26.97,0,110.6,13.04,16.08,222.9
"2016-04-26 01:11:00",1579753,0.308,328.8,42.14,0.379,18.92,106.2591,15.3,16.21,26.63,0,110.6,13.04,16.10,290.8
"2016-04-26 01:11:30",1579754,0.055,74.67,41.91,0.223,18.94,106.2791,15.35,16.22,26.44,0,110.6,13.03,16.15,36.7
"2016-04-26 01:12:00",1579755,0.768,99.9,19.22,0.506,19,106.2805,15.35,16.23,26.47,0,110.6,13.04,16.16,61.9
"2016-04-26 01:12:30",1579756,1.991,108.2,15.35,0.333,18.92,106.278,15.35,16.24,26.36,0,110.6,13.04,16.15,70.2
"2016-04-26 01:13:00",1579757,2.09,117,4.425,0.241,18.75,106.2769,15.34,16.27,26.53,0,110.6,13.04,16.15,79.0
"2016-04-26 01:13:30",1579758,2.95,125.4,14.94,0.969,18.89,106.2749,15.34,16.26,26.56,0,110.6,13.04,16.14,87.4
"2016-04-26 01:14:00",1579759,2.434,91.1,23.36,0.842,19.01,106.2732,15.33,16.27,26.33,0,110.6,13.04,16.14,53.1
"2016-04-26 01:14:30",1579760,1.746,103.9,27.83,0.659,18.78,106.2828,15.36,16.28,26.56,0,110.6,13.04,16.16,65.9
"2016-04-26 01:15:00",1579761,3.132,153.2,7.363,0.293,18.84,106.2859,15.37,16.29,26.66,0,110.6,13.05,16.17,115.2
"2016-04-26 01:15:30",1579762,1.79,138.8,10.11,0.767,18.84,106.2859,15.37,16.3,26.55,0,110.6,13.05,16.17,100.8
"2016-04-26 01:16:00",1579763,0.108,115.1,87.7,0.287,18.88,106.2859,15.37,16.29,26.66,0,110.6,13.05,16.17,77.1
"2016-04-26 01:16:30",1579764,2.018,156.5,29.89,0.843,18.89,106.2859,15.37,16.31,26.52,0,110.6,13.05,16.17,118.5
"2016-04-26 01:17:00",1579765,2.02,198.8,16.14,0.39,18.8,106.2859,15.37,16.32,26.58,0,110.6,13.05,16.17,160.8
"2016-04-26 01:17:30",1579766,1.518,191.7,16.78,0.532,18.75,106.2859,15.37,16.31,26.74,0,110.6,13.05,16.17,153.7
"2016-04-26 01:18:00",1579767,1.695,213.1,22.83,0.88,18.76,106.2859,15.37,16.32,26.8,0,110.6,13.05,16.17,175.1
"2016-04-26 01:18:30",1579768,4.014,204.7,11.31,1.116,19,106.2859,15.37,16.33,26.58,0,110.6,13.05,16.17,166.7
"2016-04-26 01:19:00",1579769,3.514,199.4,15.95,0.788,18.89,106.2859,15.37,16.32,26.47,0,110.6,13.05,16.17,161.4
"2016-04-26 01:19:30",1579770,3.754,172.7,8.18,0.742,18.77,106.2859,15.37,16.33,26.76,0,110.6,13.05,16.17,134.7
"2016-04-26 01:20:00",1579771,4.688,171.9,8.33,0.374,18.85,106.2859,15.37,16.33,26.82,0,110.6,13.05,16.17,133.9
"2016-04-26 01:20:30",1579772,4.757,205.1,21.34,1.281,18.59,106.2859,15.37,16.32,27.12,0,110.6,13.05,16.17,167.1
"2016-04-26 01:21:00",1579773,3.089,186.4,11.02,1.043,18.55,106.2859,15.37,16.32,27.47,0,110.6,13.05,16.17,148.4
"2016-04-26 01:21:30",1579774,5.481,218.6,15.73,2.503,18.77,106.2859,15.37,16.32,26.54,0,110.6,13.05,16.17,180.6
"2016-04-26 01:22:00",1579775,11.93,208.4,7.509,2.742,18.75,106.2862,15.37,16.32,26.61,0,110.6,13.05,16.17,170.4
"2016-04-26 01:22:30",1579776,10.17,221.3,8.55,1.083,18.71,106.2859,15.37,16.31,26.25,0,110.6,13.05,16.17,183.3
"2016-04-26 01:23:00",1579777,10.6,244.5,9.34,2.073,18.71,106.2865,15.37,16.3,26.51,0,110.6,13.05,16.17,206.5
"2016-04-26 01:23:30",1579778,10.28,236.8,5.485,1.053,18.91,106.2865,15.37,16.3,25.55,0,110.6,13.05,16.17,198.8
"2016-04-26 01:24:00",1579779,8.84,232.7,1.994,0.41,18.94,106.2868,15.37,16.31,25.26,0,110.6,13.05,16.17,194.7
"2016-04-26 01:24:30",1579780,8.13,208.5,18.25,0.78,18.78,106.2862,15.37,16.32,25.27,0,110.6,13.05,16.17,170.5
"2016-04-26 01:25:00",1579781,7.01,211.9,9.8,0.862,18.83,106.2865,15.37,16.31,25.6,0,110.6,13.05,16.17,173.9
"2016-04-26 01:25:30",1579782,8.9,216.1,8.99,1.158,18.91,106.2901,15.38,16.33,24.93,0,110.6,13.05,16.18,178.1
"2016-04-26 01:26:00",1579783,9.17,215.7,5.755,0.988,18.7,106.2883,15.37,16.31,25.66,0,110.6,13.05,16.18,177.7
"2016-04-26 01:26:30",1579784,7.481,207.9,13.49,1.748,18.54,106.288,15.37,16.34,27.61,0,110.6,13.05,16.18,169.9
"2016-04-26 01:27:00",1579785,8.43,228.4,8.96,0.415,18.75,106.2889,15.37,16.33,26.5,0,110.6,13.05,16.18,190.4
"2016-04-26 01:27:30",1579786,7.31,247.5,5.216,0.959,18.68,106.2904,15.38,16.35,26.45,0,110.6,13.05,16.18,209.5
"2016-04-26 01:28:00",1579787,7.074,249.2,5.474,1.346,18.71,106.2928,15.38,16.34,26.53,0,110.6,13.04,16.19,211.2
"2016-04-26 01:28:30",1579788,9.55,240,5.491,1.038,19.03,106.2943,15.39,16.36,25.12,0,110.6,13.05,16.19,202.0
"2016-04-26 01:29:00",1579789,9.23,232.1,3.337,0.601,18.99,106.2949,15.39,16.35,23.3,0,110.6,13.05,16.19,194.1
"2016-04-26 01:29:30",1579790,8.84,228.7,1.961,0.291,18.99,106.2955,15.39,16.35,23.45,0,110.6,13.05,16.20,190.7
"2016-04-26 01:30:00",1579791,8.79,228.9,2.463,0.329,18.95,106.2961,15.39,16.36,22.93,0,110.6,13.05,16.20,190.9
"2016-04-26 01:30:30",1579792,8.85,233.4,3.068,0.602,18.74,106.2967,15.39,16.38,24.02,0,110.6,13.05,16.20,195.4
"2016-04-26 01:31:00",1579793,8.19,234.2,3.232,0.497,18.78,106.2982,15.4,16.39,24.72,0,110.6,13.05,16.20,196.2
"2016-04-26 01:31:30",1579794,8.75,235.5,4.32,0.742,18.95,106.3044,15.41,16.39,23.8,0,110.6,13.05,16.22,197.5
"2016-04-26 01:32:00",1579795,7.423,232.5,5.364,0.476,18.84,106.3183,15.45,16.39,23.96,0,110.6,13.05,16.25,194.5
"2016-04-26 01:32:30",1579796,6.882,235.9,5.845,0.453,18.81,106.3283,15.47,16.4,23.65,0,110.6,13.05,16.28,197.9
"2016-04-26 01:33:00",1579797,6.266,233.1,4.984,0.571,18.81,106.3328,15.49,16.4,24.53,0,110.6,13.05,16.29,195.1
"2016-04-26 01:33:30",1579798,6.261,236.7,3.332,0.538,18.71,106.338,15.5,16.41,24.99,0,110.6,13.06,16.30,198.7
"2016-04-26 01:34:00",1579799,5.916,239.1,6.104,0.515,18.82,106.3395,15.5,16.42,25.41,0,110.6,13.06,16.31,201.1
"2016-04-26 01:34:30",1579800,6.648,234.2,4.257,0.353,18.79,106.3404,15.5,16.43,25.4,0,110.6,13.06,16.31,196.2
"2016-04-26 01:35:00",1579801,6.143,232.8,5.86,0.426,18.82,106.3416,15.51,16.44,25.08,0,110.6,13.06,16.31,194.8
"2016-04-26 01:35:30",1579802,5.487,243.8,6.052,0.989,18.78,106.3422,15.51,16.44,25.33,0,110.6,13.06,16.32,205.8
"2016-04-26 01:36:00",1579803,5.714,237.1,5.744,0.416,18.78,106.3461,15.52,16.45,25.22,0,110.6,13.06,16.33,199.1
"2016-04-26 01:36:30",1579804,4.23,231.2,8.76,0.555,18.82,106.3443,15.51,16.45,25.49,0,110.6,13.06,16.32,193.2
"2016-04-26 01:37:00",1579805,3.844,223.8,6.864,0.787,18.72,106.3473,15.52,16.44,25.59,0,110.6,13.06,16.33,185.8
"2016-04-26 01:37:30",1579806,1.839,244.6,11.11,0.426,18.39,106.347,15.52,16.46,27.27,0,110.6,13.06,16.33,206.6
"2016-04-26 01:38:00",1579807,2.706,263.7,11.96,0.721,18.33,106.35,15.53,16.46,27.84,0,110.6,13.06,16.34,225.7
"2016-04-26 01:38:30",1579808,2.237,284.8,13.49,0.366,18.28,106.3493,15.53,16.46,27.93,0,110.6,13.06,16.33,246.8
"2016-04-26 01:39:00",1579809,2.534,261,11.53,0.259,18.4,106.3498,15.53,16.45,27.84,0,110.6,13.06,16.34,223.0
"2016-04-26 01:39:30",1579810,3.076,223.6,6.716,0.431,18.15,106.3454,15.52,16.45,28.84,0,110.6,13.06,16.32,185.6
"2016-04-26 01:40:00",1579811,2.594,214,6.189,0.498,18.22,106.3282,15.47,16.45,28.91,0,110.6,13.06,16.28,176.0
"2016-04-26 01:40:30",1579812,2.088,240.7,9.89,0.386,18.24,106.3203,15.45,16.45,28.8,0,110.6,13.06,16.26,202.7
"2016-04-26 01:41:00",1579813,2.949,227.8,4.416,0.556,18.4,106.32,15.45,16.44,28.96,0,110.6,13.06,16.26,189.8
"2016-04-26 01:41:30",1579814,3.154,222.9,7.39,0.368,18.97,106.3109,15.43,16.43,27.27,0,110.6,13.05,16.24,184.9
"2016-04-26 01:42:00",1579815,4.433,215.6,6.595,0.269,18.89,106.2922,15.38,16.41,27,0,110.6,13.05,16.19,177.6
"2016-04-26 01:42:30",1579816,3.989,224.3,9.39,0.463,18.88,106.2871,15.37,16.39,27.69,0,110.6,13.05,16.17,186.3
"2016-04-26 01:43:00",1579817,3.831,239.1,6.199,0.684,18.56,106.286,15.37,16.38,27.91,0,110.6,13.05,16.17,201.1
"2016-04-26 01:43:30",1579818,3.366,248.8,9.24,0.391,18.55,106.2776,15.34,16.36,28.55,0,110.6,13.05,16.15,210.8
"2016-04-26 01:44:00",1579819,4.641,250.8,2.845,0.481,18.72,106.2559,15.29,16.34,28.29,0,110.6,13.05,16.09,212.8
"2016-04-26 01:44:30",1579820,4.954,244.2,3.826,0.622,19.28,106.2542,15.28,16.32,27.15,0,110.6,13.05,16.09,206.2
"2016-04-26 01:45:00",1579821,4.331,254.5,4.446,0.661,18.85,106.2531,15.28,16.29,27.3,0,110.6,13.05,16.09,216.5
"2016-04-26 01:45:30",1579822,3.313,271.1,6.556,0.614,19.35,106.2461,15.26,16.3,26.37,0,110.6,13.05,16.07,233.1
"2016-04-26 01:46:00",1579823,2.359,275.9,9.67,0.327,19.08,106.2376,15.24,16.27,26.43,0,110.6,13.05,16.05,237.9
"2016-04-26 01:46:30",1579824,2.492,273.7,5.931,0.395,19.18,106.2266,15.21,16.25,26.8,0,110.6,13.05,16.02,235.7
"2016-04-26 01:47:00",1579825,2.578,260,5.553,0.292,19.15,106.2291,15.22,16.23,26.14,0,110.6,13.05,16.02,222.0